Weather in Privolzhsk

Russia / Ivanovo Oblast     57°22′50″N   41°16′50″E
temp.,
°C
wind,
m/s
gust,
m/s
humid.,
%
clouds,
%
prec.,
mm/h
press.,
hPa
HPBL,
m
2 march, tue
tue200:00+1w71499100 0.1 1006601
03:00+1w81598100 0.3 1004690
06:00+1wnw71397100 0.2 1002768
09:000wnw71390100 0.3 1002864
12:00+1wnw6118996 0.1 1002930
15:000nw7118599 0.2 10021033
18:000wnw61290100 0.1 1002764
21:00−3nw61393100 0.3 1005705
3 march, wed
wed300:00−6nw6139011 0.0 1006429
03:00−7nw6129252 0.1 1009484
06:00−9nw5129499 0.1 1009410
09:00−8nw61193100 0.1 1010537
12:00−4wnw61090100 0.0 1009682
15:00−2w5996100 0.4 1008674
18:00−2w71294100 0.6 1005786
21:00−3w61391100 0.8 1004577
4 march, thu
thu400:00−3wsw61295100 0.2 1001602
03:00−2wsw81495100 0.7 998768
06:00−1w71395100 0.5 995889
09:00−4wnw7148780 0.6 995751
12:00−4wnw7118796 0.1 997889
15:00−2nw688498 0.2 9981027
18:00−5nw369498 0.3 999164
21:00−10nnw239183 0.3 100121
5 march, fri
fri500:00−12nnw23940 0.0 100221
03:00−14nnw23940 0.0 100420
06:00−15nnw33950 0.0 100537
09:00−13nnw23920 0.0 1006117
12:00−8wnw23820 0.0 1007335
15:00−6w34800 0.0 1008534
18:00−10wsw33880 0.0 100825
21:00−10wsw349531 0.0 101074
6 march, sat
sat600:00−10wnw369690 0.6 1011238
03:00−15nw349679 0.6 101354
06:00−18nw349521 0.0 101449
09:00−16wnw369525 0.0 1014203
12:00−11w468832 0.0 1014400
15:00−9w588860 0.1 1013778
18:00−11w3692100 0.1 1012140
21:00−14wsw349388 0.1 101159